Zurück zum Katalog

STARLINK-34375

AktivKommunikationVLEO
NORAD 64477·PAYLOAD·🇺🇸 United States

Gestartet Jun 23, 2025 von Cape Canaveral Space Force Station

Loading…

Nächste Überflüge (nächste 24 Stunden)

TLE

AktuellSource: CelesTrak SupGP

Epoche: Sep 15, 2026, 02:55 UTC

1 64477C 25133F   26258.12201389  .00042611  00000+0  12587-2 0  2587
2 64477  53.1586 311.0952 0001221  80.2155 265.7659 15.34374654    19

Verfolge STARLINK-34375 in Echtzeit mit AllMySat

Download on the App Store